Flag for U.S.A. Weather past 2 weeks in Ann Arbor, Michigan, U.S.A.

Now
45 °F

Mostly cloudy.


Feels Like: 38 °F
Forecast: 40 / 53 °F
Wind: 15 mph from West

Location: Ann Arbor Municipal Airport

Current Time: Apr 20, 2015 at 11:38:01 PM

Latest Report: Apr 20, 2015 at 10:53 PM


Visibility: 10 mi

Pressure: 29.57 "Hg

Humidity: 74%

Dew point: 37 °F

Location of Ann ArborLocation

Historic Weather in Ann Arbor — Graph

°F

Ann Arbor temperature yesterday

Maximum temperature yesterday: 63 °F (at 12:53 PM)
Minimum temperature yesterday: 45 °F (at 3:53 AM)
Average temperature yesterday: 52 °F

Past Weeks' High & Low Weather Summary

 TemperatureHumidityPressure
High77 °F (Apr 17, 4:53 PM)100% (Apr 8, 12:53 PM)30.39 "Hg (Apr 8, 12:53 PM)
Low29 °F (Apr 6, 5:53 AM)17% (Apr 18, 9:53 PM)29.21 "Hg (Apr 20, 4:53 AM)
Average51 °F67%30.01 "Hg
* Reported Apr 5 9:53 PM — Apr 20 9:53 PM, Ann Arbor, Weather by CustomWeather, © 2015

Note: Actual official high and low records may vary slightly from our data, if they occured in-between our weather recording intervals... More about our weather records

Advertising

Ann Arbor weather history for previous 24 hours

 ConditionsComfort  
Time TempWeatherWind HumidityBarometerVisibility
9:53 PM
Mon, Apr 20
45 °FMostly cloudy.13 mph76%29.57 "Hg10 mi
8:53 PM46 °FMostly cloudy.20 mph79%29.54 "Hg10 mi
7:53 PM46 °FMore clouds than sun.20 mph83%29.51 "Hg10 mi
6:53 PM47 °FLight rain. Mostly cloudy.17 mph86%29.49 "Hg9 mi
5:53 PM49 °FLight rain. Mostly cloudy.17 mph86%29.44 "Hg7 mi
4:53 PM53 °FMostly cloudy.20 mph72%29.40 "Hg10 mi
3:53 PM55 °FMostly cloudy.21 mph67%29.37 "Hg10 mi
2:53 PM57 °FMore clouds than sun.29 mph67%29.34 "Hg10 mi
1:53 PM62 °FPartly sunny.22 mph62%29.30 "Hg10 mi
1:03 PM61 °FCloudy.20 mph72%29.28 "Hg10 mi
12:53 PM62 °FMostly cloudy.21 mph73%29.27 "Hg10 mi
11:53 AM61 °FCloudy.16 mph78%29.27 "Hg10 mi
10:53 AM60 °FMostly cloudy.15 mph80%29.27 "Hg10 mi
9:53 AM57 °FLight rain. Mostly cloudy.12 mph90%29.28 "Hg8 mi
9:00 AM57 °FOvercast.12 mph87%29.29 "Hg8 mi
7:53 AM56 °FOvercast.16 mph87%29.29 "Hg10 mi
7:01 AM56 °FMostly cloudy.15 mph90%29.27 "Hg10 mi
5:53 AM58 °FOvercast.15 mph90%29.23 "Hg10 mi
4:53 AM59 °FLow clouds.12 mph93%29.21 "Hg9 mi
3:53 AM54 °FLight rain. Fog.9 mph97%29.23 "Hg4 mi
2:53 AM53 °FLight rain. Fog.9 mph96%29.28 "Hg4 mi
1:53 AM52 °FRain. Fog.10 mph97%29.33 "Hg3 mi
12:53 AM52 °FLight rain. Fog.10 mph93%29.37 "Hg5 mi
11:53 PM
Sun, Apr 19
52 °FMostly cloudy.15 mph97%29.41 "Hg8 mi
Weather by CustomWeather, © 2015

See weather overviewHow to use our weather pages